カタログに戻る

NOAA 16 DEB

運用中SSO
NORAD 41305·DEBRIS·🇺🇸 United States

打ち上げ Sep 21, 2000 から Vandenberg Space Force Base

Loading…

次のパス (今後24時間)

TLE

最新Source: Space-Track

元期: Sep 14, 2026, 10:34 UTC

1 41305U 00055HH  26257.44056524  .00002062  00000-0  10076-2 0  9991
2 41305  98.7354 248.6235 0035628   7.1732 352.9946 14.18730534550177

AllMySatでNOAA 16 DEBをリアルタイム追跡

Download on the App Store